Miscellaneous Local Product
Issued by NWS Hastings, NE

Home | Current Version | Previous Version | Text Only | Print | Product List | Glossary On
Versions: 1 2 3 4 5 6 7 8 9 10 11 12 13 14 15 16 17 18 19 20 21 22 23 24 25 26 27 28 29 30 31 32 33 34 35 36 37 38 39 40 41 42 43 44 45 46 47 48 49 50
000
AXUS43 KGID 300502
MISGRI

GID CWA HOURLY WEATHER ROUNDUP
NATIONAL WEATHER SERVICE HASTINGS NE
1200 AM CDT THU MAR 30 2017

NOTE: "FAIR" INDICATES FEW OR NO CLOUDS BELOW 12,000 FEET WITH NO
SIGNIFICANT WEATHER AND/OR OBSTRUCTIONS TO VISIBILITY.

...SOUTH CENTRAL NEBRASKA...

CITY           SKY/WX    TMP DP  RH WIND       PRES   REMARKS
GRAND ISLAND   LGT RAIN  37  37 100 N15       29.83F FOG     WCI  28
HASTINGS       LGT RAIN  38  37  97 N23G30    29.81F FOG     WCI  27
KEARNEY        CLOUDY    37  34  87 N20G30    29.84F WCI  27
ORD            CLOUDY    38  34  85 N14       29.88F WCI  30
YORK           LGT RAIN  39  39 100 N21G26    29.79F WCI  29
AURORA         LGT RAIN  38  38 100 N18G26    29.81F WCI  29
LEXINGTON      CLOUDY    39  37  90 N18       29.86F WCI  30
HOLDREGE       DRIZZLE   38  36  92 N15G25    29.83F WCI  30
HEBRON         LGT RAIN  40  39  97 N16G22    29.72F WCI  31

...NEBRASKA PANHANDLE...

CITY           SKY/WX    TMP DP  RH WIND       PRES   REMARKS
CHADRON        CLEAR     41  35  79 CALM      29.92F
ALLIANCE       CLEAR     29  28  96 W6        29.93F WCI  23
SCOTTSBLUFF    CLEAR     36  33  89 E5        29.94F WCI  32
SIDNEY         CLEAR     32  31  96 W5        29.95F WCI  27

...WESTERN AND NORTH CENTRAL NEBRASKA...

CITY           SKY/WX    TMP DP  RH WIND       PRES   REMARKS
VALENTINE      CLOUDY    42  34  73 E7        29.95F
AINSWORTH      CLOUDY    38  37  95 NE14      29.94F WCI  30
ONEILL         CLOUDY    38  37  97 NE10      29.93F WCI  31
BROKEN BOW     CLOUDY    39  36  89 N15       29.88F WCI  31
IMPERIAL       CLEAR     38  35  89 NW12      29.92F WCI  30
NORTH PLATTE   CLOUDY    41  34  76 N15       29.91F
MCCOOK         CLOUDY    41  38  89 N14       29.88F

...EASTERN NEBRASKA...

CITY           SKY/WX    TMP DP  RH WIND       PRES   REMARKS
NORFOLK        LGT SNOW  38  36  92 NE14G22   29.87F FOG     WCI  30
SO SIOUX CITY  CLOUDY    40  37  89 NE15G23   29.88S WCI  32
TEKAMAH        CLOUDY    42  38  85 E21       29.80F
COLUMBUS       CLOUDY    39  36  87 NE18      29.83F WCI  30
ALBION         LGT RAIN  38  36  90 N12       29.87F WCI  31
OMAHA EPPLEY   LGT RAIN  43  38  82 N15G25    29.74F
OFFUTT AFB     LGT RAIN  43  41  91 NE18G24   29.73F
MILLARD        CLOUDY    45  42  89 NE12G20   29.74F
LINCOLN        LGT RAIN  42  41  96 N16G24    29.75F FOG
NEBRASKA CITY  CLOUDY    44  44 100 NE10      29.69F
BEATRICE       LGT RAIN  42  42  99 NE15      29.67F
FALLS CITY     CLOUDY    49  46  90 NE12      29.63F

...NORTHERN KANSAS...

CITY           SKY/WX    TMP DP  RH WIND       PRES   REMARKS
GOODLAND       CLEAR     36  34  92 NW14      29.89F WCI  27
HILL CITY      CLOUDY    41  39  93 N22G30    29.82F
NORTON         CLOUDY    39  36  87 N17G25    29.83F WCI  30
PHILLIPSBURG   DRIZZLE   39  39 100 NW18G24   29.82F WCI  30
HAYS             N/A     39  37  92 N22G32    29.77F WCI  29
RUSSELL        CLOUDY    39  38  96 N26G33    29.74S WCI  28
CONCORDIA      LGT RAIN  41  40  96 N14G24    29.68F
SALINA         RAIN      45  42  89 NW18      29.65F
TOPEKA         CLOUDY    56  56 100 SE5       29.59S



USA.gov is the U.S. government's official web portal to all federal, state and local government web resources and services.